DELTA 1 DEB, 7037

Orbit data source: Space-Track

DELTA 1 DEB, 7037 is space debris in LEO originally from a launch on Tue, 06 Nov 1973 UTC launched from the Air Force Western Test Range (AFWTR). Debris objects in space refer to the collection of defunct objects orbiting the Earth. Examples of debris include non-operational satellites, rocket bodies, and fragments generated from explosions, collisions, or faulty payload assembly.

Loading next visibility...
Identifier
7037, 1973-086AD
Orbit
LEO
Last TLE update
16 hours ago
Origin
Manufacturer
Unknown
Mission
Spacecraft
Bus & Motor
Unknown
Mass
Unknown
Launch date (UTC)
1973-11-06 (52 years ago)
Launch vehicle
Unknown
Launch site
Air Force Western Test Range (AFWTR)
Object type
Payload
Rocket body
Debris
Shape & HBR
Unknown
Radar Cross Section
Medium (>0.1 m² and <1 m²)

Expand to show TLE details & history

TLE from 16 hours ago
0 DELTA 1 DEB
1 07037U 73086AD  25181.71678541 -.00000018  00000-0  24790-3 0  9992
2 07037 102.0495 257.0185 0325170  53.6451  72.4907 11.86603622236319
Epoch: 2025-06-30T17:12Z
TLE epoch observation values (Epoch: 2025-06-30T17:12:10.259Z)
Latitude
48.86458°
Longitude
-85.9705°
Altitude
1,677.294 km
Speed
7.071 km/s
True Right ascension
06h 04m 22s
True Declination
48° 42' 49"
Sunlit
Object was in daylight at epoch
Visualization orbit readout
Latitude
42.64745°
Longitude
69.25702°
Altitude
1,486.205 km
Speed
7.238 km/s
Apparent Right ascension
13h 01m 11s
Apparent Declination
12° 29' 37"
Sunlit
Object is in daylight
Visualization observer readout
Local Sidereal Time
20:33:59
Azimuth
294.699° NW
Elevation
-8.986°
Doppler factor
1
Orbital elements
Apogee altitude
2,002.993 km
Perigee altitude
1,475.1 km
Semi-major axis
8,117.184 km
Eccentricity
0.03252
Inclination
102.0495°
RAAN
257.0185°
Arg. of periapsis
53.6451°
True anomaly
Unknown
Mean anomaly
72.4907°
Eccentric anomaly
Unknown
Mean motion
2.9678 °/min
Orbital period
121.3 mins
BSTAR
0.0002479
Loading maneuver chart data...
Loading SW <> Apogee altitude chart data...
Loading historical data...
Loading historical data...
Loading historical data...
Loading historical data...
Loading historical data...
Loading historical data...
Loading historical data...

DELTA 1 DEB Visibility forecast

Observer location: undefined°, undefined°

Span
Click to sort rows by Start time (UTC) header in descending order
Start Az.
Max El. time (UTC)
Max El. Az.
Max El.
End time (UTC)
End Az.
17 mins2025-07-01 17:24:47.882Z27.722° NE2025-07-01 17:32:47.882Z102.716° ESE40.066°2025-07-01 17:41:47.882Z179.569° S
15 mins2025-07-01 19:24:47.882Z358.2° N2025-07-01 19:31:47.882Z296.116° NW30.96°2025-07-01 19:39:47.882Z239.894° WSW
10 mins2025-07-02 03:05:47.882Z94.365° ESE2025-07-02 03:10:47.882Z48.89° ENE22.958°2025-07-02 03:15:47.882Z7.892° NNE
15 mins2025-07-02 05:01:47.882Z170.985° S2025-07-02 05:08:47.882Z265.014° W43.651°2025-07-02 05:16:47.882Z338.584° N
|